CW1648 Weather Reports


time (UTC)temp
C
wind
direction
speed
KPH
gust
KPH
rain 1hr
cm
rain 24hr
cm
rain mn
cm
humidity
%
barometer
mb
20260504070235 3 227 0.0 0.0 0.00 0.00 0.00 79 1011.9
20260504070134 3 227 0.0 0.0 0.00 0.00 0.00 79 1011.9
20260504060200 5 227 0.0 0.0 0.00 0.00 0.00 73 1011.8
20260504050640 7 227 0.0 0.0 0.00 0.00 0.00 63 1012.0
20260504050535 7 227 0.0 0.0 0.00 0.00 0.00 63 1012.0
20260504050514 7 227 0.0 0.0 0.00 0.00 0.00 63 1011.9
20260504050438 7 227 0.0 0.0 0.00 0.00 0.00 63 1011.9
20260504050339 7 227 0.0 0.0 0.00 0.00 0.00 62 1011.9
20260504050239 7 227 0.0 0.0 0.00 0.00 0.00 62 1011.9
20260504050139 7 227 0.0 0.0 0.00 0.00 0.00 61 1011.9
20260504050020 7 227 0.0 0.0 0.00 0.00 0.00 62 1012.0
20260504050013 7 227 0.0 0.0 0.00 0.00 0.00 62 1011.9
20260504045938 7 227 0.0 0.0 0.00 0.00 0.00 61 1011.9
20260504045838 7 227 0.0 0.0 0.00 0.00 0.00 61 1011.9
20260504045737 7 227 0.0 0.0 0.00 0.00 0.00 61 1011.9
20260504045634 7 227 0.0 0.0 0.00 0.00 0.00 61 1011.9
20260504045520 7 227 0.0 0.0 0.00 0.00 0.00 61 1012.0
20260504045513 7 227 0.0 0.0 0.00 0.00 0.00 61 1011.9
20260504045447 7 227 0.0 0.0 0.00 0.00 0.00 60 1011.9
20260504045443 7 227 0.0 0.0 0.00 0.00 0.00 61 1011.9
20260504045434 7 227 0.0 0.0 0.00 0.00 0.00 61 1011.9
20260504045320 7 227 0.0 0.0 0.00 0.00 0.00 60 1011.9
20260504045207 7 227 0.0 0.0 0.00 0.00 0.00 60 1011.9
20260504045158 7 227 0.0 0.0 0.00 0.00 0.00 60 1011.9
20260504045020 7 227 0.0 0.0 0.00 0.00 0.00 60 1012.0
20260504044733 8 227 0.0 0.0 0.00 0.00 0.00 60 1011.9
20260504044631 8 227 0.0 0.0 0.00 0.00 0.00 60 1011.8
20260504044531 8 227 0.0 0.0 0.00 0.00 0.00 60 1011.8
20260504044520 8 227 0.0 0.0 0.00 0.00 0.00 59 1011.9
20260504044510 8 227 0.0 0.0 0.00 0.00 0.00 59 1011.8
20260504044431 8 227 0.0 0.0 0.00 0.00 0.00 59 1011.8
20260504044330 8 227 0.0 0.0 0.00 0.00 0.00 59 1011.8
20260504044229 8 227 0.0 0.0 0.00 0.00 0.00 59 1011.8
20260504044128 8 227 0.0 0.0 0.00 0.00 0.00 59 1011.8
20260504044100 8 227 0.0 0.0 0.00 0.00 0.00 59 1011.8
20260504044056 8 227 0.0 0.0 0.00 0.00 0.00 58 1011.8
20260504044051 8 227 0.0 0.0 0.00 0.00 0.00 58 1011.8
20260504044043 8 227 0.0 0.0 0.00 0.00 0.00 59 1011.8
20260504044021 8 227 0.0 0.0 0.00 0.00 0.00 59 1011.9
20260504043724 8 227 0.0 0.0 0.00 0.00 0.00 57 1011.8
20260504043625 8 227 0.0 0.0 0.00 0.00 0.00 56 1011.8
20260504043525 8 227 0.0 0.0 0.00 0.00 0.00 57 1011.8
20260504043520 8 227 0.0 0.0 0.00 0.00 0.00 56 1011.9
20260504043506 8 227 0.0 0.0 0.00 0.00 0.00 56 1011.8
20260504043446 8 227 0.0 0.0 0.00 0.00 0.00 56 1011.8
20260504043333 8 227 0.0 0.0 0.00 0.00 0.00 56 1011.8
20260504043122 8 227 0.0 0.0 0.00 0.00 0.00 56 1011.8
20260504043020 8 227 0.0 0.0 0.00 0.00 0.00 55 1011.8
20260504043007 8 227 0.0 0.0 0.00 0.00 0.00 55 1011.7
20260504042948 8 227 0.0 0.0 0.00 0.00 0.00 56 1011.8
20260504042943 8 227 0.0 0.0 0.00 0.00 0.00 56 1011.8
20260504042939 8 227 0.0 0.0 0.00 0.00 0.00 56 1011.8
20260504042620 8 227 0.0 0.0 0.00 0.00 0.00 56 1011.8
20260504042550 8 227 0.0 0.0 0.00 0.00 0.00 55 1011.7
20260504042546 8 227 0.0 0.0 0.00 0.00 0.00 56 1011.7
20260504042540 8 227 0.0 0.0 0.00 0.00 0.00 56 1011.8
20260504042533 8 227 0.0 0.0 0.00 0.00 0.00 56 1011.7
20260504042520 8 227 0.0 0.0 0.00 0.00 0.00 56 1011.7
20260504042215 8 227 0.0 0.0 0.00 0.00 0.00 56 1011.7
20260504042114 8 227 0.0 0.0 0.00 0.00 0.00 55 1011.6
20260504042020 8 227 0.0 0.0 0.00 0.00 0.00 55 1011.7
20260504042005 8 227 0.0 0.0 0.00 0.00 0.00 55 1011.7
20260504041913 8 227 0.0 0.0 0.00 0.00 0.00 54 1011.7
20260504041813 8 227 0.0 0.0 0.00 0.00 0.00 54 1011.6
20260504041712 8 227 0.0 0.0 0.00 0.00 0.00 53 1011.6
20260504041612 8 227 0.0 0.0 0.00 0.00 0.00 53 1011.6
20260504041529 8 227 0.0 0.0 0.00 0.00 0.00 54 1011.6
20260504041520 8 227 0.0 0.0 0.00 0.00 0.00 53 1011.6
20260504041518 8 227 0.0 0.0 0.00 0.00 0.00 53 1011.6
20260504041310 8 227 0.0 0.0 0.00 0.00 0.00 53 1011.6
20260504041210 8 227 0.0 0.0 0.00 0.00 0.00 53 1011.5
20260504041109 9 227 0.0 0.0 0.00 0.00 0.00 53 1011.5
20260504041020 9 227 0.0 0.0 0.00 0.00 0.00 53 1011.5
20260504041004 9 227 0.0 0.0 0.00 0.00 0.00 53 1011.5
20260504040907 9 227 0.0 0.0 0.00 0.00 0.00 54 1011.5
20260504040807 9 227 0.0 0.0 0.00 0.00 0.00 54 1011.5
20260504040707 9 227 0.0 0.0 0.00 0.00 0.00 53 1011.5
20260504040605 9 227 0.0 0.0 0.00 0.00 0.00 53 1011.5
20260504040520 9 227 0.0 0.0 0.00 0.00 0.00 53 1011.5
20260504040506 9 227 0.0 0.0 0.00 0.00 0.00 53 1011.5
20260504040405 9 227 0.0 0.0 0.00 0.00 0.00 54 1011.6
20260504040304 9 227 0.0 0.0 0.00 0.00 0.00 53 1011.6
20260504040204 9 227 0.0 0.0 0.00 0.00 0.00 53 1011.5
20260504040103 9 227 0.0 0.0 0.00 0.00 0.00 53 1011.6
20260504040020 9 227 0.0 0.0 0.00 0.00 0.00 53 1011.6
20260504040007 9 227 0.0 0.0 0.00 0.00 0.00 53 1011.6
20260504040001 9 227 0.0 0.0 0.00 0.00 0.00 53 1011.6
20260504035902 9 227 0.0 0.0 0.00 0.00 0.00 53 1011.5
20260504035818 9 227 0.0 0.0 0.00 0.00 0.00 53 1011.6
20260504035814 9 227 0.0 0.0 0.00 0.00 0.00 54 1011.4
20260504035810 9 227 0.0 0.0 0.00 0.00 0.00 53 1011.6
20260504035614 9 227 0.0 0.0 0.00 0.00 0.00 53 1011.5
20260504035520 9 227 0.0 0.0 0.00 0.00 0.00 54 1011.4
20260504035459 9 227 0.0 0.0 0.00 0.00 0.00 54 1011.4
20260504035359 9 227 0.0 0.0 0.00 0.00 0.00 54 1011.4
20260504035258 9 227 0.0 0.0 0.00 0.00 0.00 54 1011.3
20260504035157 9 227 0.0 0.0 0.00 0.00 0.00 55 1011.4
20260504035057 9 227 0.0 0.0 0.00 0.00 0.00 54 1011.4
20260504035020 9 227 0.0 0.0 0.00 0.00 0.00 54 1011.4
20260504034956 9 227 0.0 0.0 0.00 0.00 0.00 54 1011.4
20260504034856 9 227 0.0 0.0 0.00 0.00 0.00 54 1011.4
20260504034755 9 227 0.0 0.0 0.00 0.00 0.00 54 1011.4
20260504034654 9 227 0.0 0.0 0.00 0.00 0.00 53 1011.4
20260504034554 9 227 0.0 0.0 0.00 0.00 0.00 53 1011.4
20260504034520 9 227 0.0 0.0 0.00 0.00 0.00 53 1011.4
20260504034453 9 227 0.0 0.0 0.00 0.00 0.00 53 1011.4
20260504034353 9 227 0.0 0.0 0.00 0.00 0.00 53 1011.4
20260504034252 9 227 0.0 0.0 0.00 0.00 0.00 53 1011.4
20260504034151 9 227 0.0 0.0 0.00 0.00 0.00 53 1011.4
20260504034051 9 227 0.0 0.0 0.00 0.00 0.00 53 1011.3
20260504034020 9 227 0.0 0.0 0.00 0.00 0.00 53 1011.3
20260504033950 9 227 0.0 0.0 0.00 0.00 0.00 53 1011.3
20260504033849 9 227 0.0 0.0 0.00 0.00 0.00 53 1011.3
20260504033821 9 227 0.0 0.0 0.00 0.00 0.00 54 1011.3
20260504033750 9 227 0.0 0.0 0.00 0.00 0.00 53 1011.4
20260504033718 9 227 0.0 0.0 0.00 0.00 0.00 54 1011.3
20260504033712 9 227 0.0 0.0 0.00 0.00 0.00 53 1011.3
20260504033703 9 227 0.0 0.0 0.00 0.00 0.00 53 1011.3
20260504033520 9 227 0.0 0.0 0.00 0.00 0.00 54 1011.3
20260504033348 9 227 0.0 0.0 0.00 0.00 0.00 54 1011.3
20260504033248 9 227 0.0 0.0 0.00 0.00 0.00 55 1011.3
20260504033225 9 227 0.0 0.0 0.00 0.00 0.00 55 1011.3
20260504033148 9 227 0.0 0.0 0.00 0.00 0.00 55 1011.3
20260504033107 9 227 0.0 0.0 0.00 0.00 0.00 55 1011.3
20260504033020 9 227 0.0 0.0 0.00 0.00 0.00 55 1011.3
20260504032947 9 227 0.0 0.0 0.00 0.00 0.00 55 1011.3
20260504032845 9 227 0.0 0.0 0.00 0.00 0.00 55 1011.3
20260504032744 9 227 0.0 0.0 0.00 0.00 0.00 54 1011.3
20260504032644 9 227 0.0 0.0 0.00 0.00 0.00 54 1011.3
20260504032543 9 227 0.0 0.0 0.00 0.00 0.00 54 1011.3
20260504032520 9 227 0.0 0.0 0.00 0.00 0.00 54 1011.3
20260504032443 9 227 0.0 0.0 0.00 0.00 0.00 54 1011.3
20260504032343 9 227 0.0 0.0 0.00 0.00 0.00 54 1011.3
20260504032242 9 227 0.0 0.0 0.00 0.00 0.00 55 1011.3
20260504032142 9 227 0.0 0.0 0.00 0.00 0.00 55 1011.3
20260504032056 9 227 0.0 0.0 0.00 0.00 0.00 55 1011.3
20260504032046 9 227 0.0 0.0 0.00 0.00 0.00 56 1011.3
20260504032020 9 227 0.0 0.0 0.00 0.00 0.00 55 1011.3
20260504031841 9 227 0.0 0.0 0.00 0.00 0.00 57 1011.2
20260504031818 9 227 0.0 0.0 0.00 0.00 0.00 56 1011.3
20260504031739 9 227 0.0 0.0 0.00 0.00 0.00 57 1011.3
20260504031715 9 227 0.0 0.0 0.00 0.00 0.00 56 1011.3
20260504031706 9 227 0.0 0.0 0.00 0.00 0.00 56 1011.3
20260504031535 9 227 0.0 0.0 0.00 0.00 0.00 56 1011.3
20260504031447 9 227 0.0 0.0 0.00 0.00 0.00 56 1011.3
20260504031251 9 227 0.0 0.0 0.00 0.00 0.00 55 1011.2
20260504031246 9 227 0.0 0.0 0.00 0.00 0.00 55 1011.3
20260504031037 9 227 0.0 0.0 0.00 0.00 0.00 54 1011.3
20260504031020 9 227 0.0 0.0 0.00 0.00 0.00 54 1011.2
20260504030955 9 227 0.0 0.0 0.00 0.00 0.00 54 1011.2
20260504030949 9 227 0.0 0.0 0.00 0.00 0.00 54 1011.2
20260504030945 9 227 0.0 0.0 0.00 0.00 0.00 53 1011.2
20260504030734 9 227 0.0 0.0 0.00 0.00 0.00 54 1011.2
20260504030634 9 227 0.0 0.0 0.00 0.00 0.00 54 1011.2
20260504030535 9 227 0.0 0.0 0.00 0.00 0.00 54 1011.2
20260504030520 9 227 0.0 0.0 0.00 0.00 0.00 54 1011.1
20260504030433 9 227 0.0 0.0 0.00 0.00 0.00 54 1011.1
20260504030334 9 227 0.0 0.0 0.00 0.00 0.00 54 1011.2
20260504030234 9 227 0.0 0.0 0.00 0.00 0.00 54 1011.1
20260504030216 8 227 0.0 0.0 0.00 0.00 0.00 54 1011.1
20260504030132 9 227 0.0 0.0 0.00 0.00 0.00 54 1011.1
20260504030059 8 227 0.0 0.0 0.00 0.00 0.00 54 1011.2
20260504030020 8 227 0.0 0.0 0.00 0.00 0.00 54 1011.1
20260504025931 8 227 0.0 0.0 0.00 0.00 0.00 54 1011.1
20260504025831 8 227 0.0 0.0 0.00 0.00 0.00 55 1011.1
20260504025729 8 227 0.0 0.0 0.00 0.00 0.00 54 1011.1
20260504025659 8 227 0.0 0.0 0.00 0.00 0.00 55 1011.1
20260504025655 8 227 0.0 0.0 0.00 0.00 0.00 55 1011.1
20260504025649 8 227 0.0 0.0 0.00 0.00 0.00 54 1011.1
20260504025532 8 227 0.0 0.0 0.00 0.00 0.00 55 1011.1
20260504025520 8 227 0.0 0.0 0.00 0.00 0.00 55 1011.1
20260504025325 8 227 0.0 0.0 0.00 0.00 0.00 55 1011.2
20260504025229 8 227 0.0 0.0 0.00 0.00 0.00 56 1011.1
20260504025225 8 227 0.0 0.0 0.00 0.00 0.00 56 1011.1
20260504025212 8 227 0.0 0.0 0.00 0.00 0.00 56 1011.2
20260504025207 8 227 0.0 0.0 0.00 0.00 0.00 56 1011.2
20260504025020 8 227 0.0 0.0 0.00 0.00 0.00 56 1011.1
20260504024923 8 227 0.0 0.0 0.00 0.00 0.00 56 1011.1
20260504024824 8 227 0.0 0.0 0.00 0.00 0.00 58 1011.2
20260504024724 8 227 0.0 0.0 0.00 0.00 0.00 58 1011.2
20260504024622 8 227 0.0 0.0 0.00 0.00 0.00 57 1011.2
20260504024535 8 227 0.0 0.0 0.00 0.00 0.00 58 1011.2
20260504024522 8 227 0.0 0.0 0.00 0.00 0.00 58 1011.2
20260504024421 8 227 0.0 0.0 0.00 0.00 0.00 57 1011.2
20260504024319 8 227 0.0 0.0 0.00 0.00 0.00 58 1011.2
20260504024220 8 227 0.0 0.0 0.00 0.00 0.00 57 1011.2
20260504024120 8 227 0.0 0.0 0.00 0.00 0.00 57 1011.2
20260504024020 8 227 0.0 0.0 0.00 0.00 0.00 58 1011.3
20260504023919 8 227 0.0 0.0 0.00 0.00 0.00 58 1011.3
20260504023817 8 227 0.0 0.0 0.00 0.00 0.00 59 1011.2
20260504023717 8 227 0.0 0.0 0.00 0.00 0.00 59 1011.2
20260504023617 8 227 0.0 0.0 0.00 0.00 0.00 59 1011.2
20260504023520 8 227 0.0 0.0 0.00 0.00 0.00 60 1011.3
20260504023516 8 227 0.0 0.0 0.00 0.00 0.00 60 1011.2
20260504023416 8 227 0.0 0.0 0.00 0.00 0.00 60 1011.2
20260504023315 8 227 0.0 0.0 0.00 0.00 0.00 61 1011.2
20260504023215 8 227 0.0 0.0 0.00 0.00 0.00 63 1011.2
20260504023115 8 227 0.0 0.0 0.00 0.00 0.00 63 1011.2
20260504023020 8 227 0.0 0.0 0.00 0.00 0.00 63 1011.2
20260504023015 8 227 0.0 0.0 0.00 0.00 0.00 63 1011.2
20260504022939 8 227 0.0 0.0 0.00 0.00 0.00 62 1011.2
20260504022935 8 227 0.0 0.0 0.00 0.00 0.00 62 1011.2
20260504022930 8 227 0.0 0.0 0.00 0.00 0.00 63 1011.2
20260504022613 8 227 0.0 0.0 0.00 0.00 0.00 62 1011.2
20260504022520 8 227 0.0 0.0 0.00 0.00 0.00 62 1011.2
20260504022512 8 227 0.0 0.0 0.00 0.00 0.00 62 1011.2
20260504022444 8 227 0.0 0.0 0.00 0.00 0.00 62 1011.2
20260504022412 8 227 0.0 0.0 0.00 0.00 0.00 62 1011.2
20260504022325 8 227 0.0 0.0 0.00 0.00 0.00 62 1011.2
20260504022320 8 227 0.0 0.0 0.00 0.00 0.00 62 1011.2
20260504022109 8 227 0.0 0.0 0.00 0.00 0.00 62 1011.2
20260504022020 8 227 0.0 0.0 0.00 0.00 0.00 61 1011.1
20260504022009 8 227 0.0 0.0 0.00 0.00 0.00 61 1011.1
20260504021944 8 227 0.0 0.0 0.00 0.00 0.00 61 1011.1
20260504021909 8 227 0.0 0.0 0.00 0.00 0.00 60 1011.1
20260504021808 8 227 0.0 0.0 0.00 0.00 0.00 61 1011.2
20260504021708 8 227 0.0 0.0 0.00 0.00 0.00 60 1011.2
20260504021640 8 227 0.0 0.0 0.00 0.00 0.00 60 1011.3
20260504021636 8 227 0.0 0.0 0.00 0.00 0.00 58 1011.2
20260504021630 8 227 0.0 0.0 0.00 0.00 0.00 61 1011.2
20260504021520 8 227 0.0 0.0 0.00 0.00 0.00 61 1011.3
20260504021513 8 227 0.0 0.0 0.00 0.00 0.00 60 1011.3
20260504021318 8 227 0.0 0.0 0.00 0.00 0.00 57 1011.2
20260504021205 9 227 0.0 0.0 0.00 0.00 0.00 56 1011.2
20260504021104 9 227 0.0 0.0 0.00 0.00 0.00 57 1011.3
20260504021052 9 227 0.0 0.0 0.00 0.00 0.00 57 1011.3
20260504021020 9 227 0.0 0.0 0.00 0.00 0.00 57 1011.3
20260504020903 9 227 0.0 0.0 0.00 0.00 0.00 55 1011.2
20260504020802 9 227 0.0 0.0 0.00 0.00 0.00 54 1011.2
20260504020701 9 227 0.0 0.0 0.00 0.00 0.00 54 1011.2
20260504020601 9 227 0.0 0.0 0.00 0.00 0.00 54 1011.2
20260504020520 9 227 0.0 0.0 0.00 0.00 0.00 54 1011.1
20260504020502 8 227 0.0 0.0 0.00 0.00 0.00 54 1011.1
20260504020444 9 227 0.0 0.0 0.00 0.00 0.00 54 1011.1
20260504020400 9 227 0.0 0.0 0.00 0.00 0.00 54 1011.1
20260504020300 9 227 0.0 0.0 0.00 0.00 0.00 54 1011.1
20260504020211 9 227 0.0 0.0 0.00 0.00 0.00 57 1011.0
20260504020206 9 227 0.0 0.0 0.00 0.00 0.00 55 1011.1
20260504020020 9 227 0.0 0.0 0.00 0.00 0.00 57 1011.0
20260504020015 9 227 0.0 0.0 0.00 0.00 0.00 56 1011.0
20260504020009 9 227 0.0 0.0 0.00 0.00 0.00 57 1011.0
20260504020003 9 227 0.0 0.0 0.00 0.00 0.00 56 1011.0
20260504015755 9 227 0.0 0.0 0.00 0.00 0.00 55 1011.0
20260504015655 9 227 0.0 0.0 0.00 0.00 0.00 55 1011.0
20260504015555 9 227 0.0 0.0 0.00 0.00 0.00 55 1011.0
20260504015535 9 227 0.0 0.0 0.00 0.00 0.00 55 1011.0
20260504015443 9 227 0.0 0.0 0.00 0.00 0.00 55 1011.0
20260504015353 9 227 0.0 0.0 0.00 0.00 0.00 55 1011.0
20260504015307 9 227 0.0 0.0 0.00 0.00 0.00 56 1011.0
20260504015304 9 227 0.0 0.0 0.00 0.00 0.00 56 1011.0
20260504015052 9 227 0.0 0.0 0.00 0.00 0.00 56 1011.0
20260504015020 9 227 0.0 0.0 0.00 0.00 0.00 56 1011.0
20260504014942 9 227 0.0 0.0 0.00 0.00 0.00 56 1011.0
20260504014852 9 227 0.0 0.0 0.00 0.00 0.00 56 1011.0
20260504014751 9 227 0.0 0.0 0.00 0.00 0.00 57 1011.0
20260504014650 9 227 0.0 0.0 0.00 0.00 0.00 57 1011.0
20260504014550 9 227 0.0 0.0 0.00 0.00 0.00 57 1011.0
20260504014520 9 227 0.0 0.0 0.00 0.00 0.00 57 1011.0
20260504014443 9 227 0.0 0.0 0.00 0.00 0.00 57 1011.0
20260504014349 9 227 0.0 0.0 0.00 0.00 0.00 57 1011.0
20260504014250 9 227 0.0 0.0 0.00 0.00 0.00 58 1011.0
20260504014149 9 227 0.0 0.0 0.00 0.00 0.00 57 1011.0
20260504014049 9 227 0.0 0.0 0.00 0.00 0.00 58 1011.0
20260504014035 9 227 0.0 0.0 0.00 0.00 0.00 58 1010.9
20260504013941 9 227 0.0 0.0 0.00 0.00 0.00 59 1010.9
20260504013848 9 227 0.0 0.0 0.00 0.00 0.00 58 1011.0
20260504013748 9 227 0.0 0.0 0.00 0.00 0.00 58 1011.0
20260504013648 10 227 0.0 0.0 0.00 0.00 0.00 58 1010.9
20260504013547 10 227 0.0 0.0 0.00 0.00 0.00 57 1010.9
20260504013520 10 227 0.0 0.0 0.00 0.00 0.00 57 1010.9
20260504013440 10 227 0.0 0.0 0.00 0.00 0.00 57 1010.9
20260504013346 10 227 0.0 0.0 0.00 0.00 0.00 56 1010.9
20260504013246 10 227 0.0 0.0 0.00 0.00 0.00 56 1010.9
20260504013146 10 227 0.0 0.0 0.00 0.00 0.00 56 1010.9
20260504013059 10 227 0.0 0.0 0.00 0.00 0.00 55 1010.9
20260504013054 10 227 0.0 0.0 0.00 0.00 0.00 55 1010.9
20260504013020 10 227 0.0 0.0 0.00 0.00 0.00 56 1010.9
20260504012937 10 227 0.0 0.0 0.00 0.00 0.00 55 1010.9
20260504012845 10 227 0.0 0.0 0.00 0.00 0.00 55 1010.9
20260504012758 10 227 0.0 0.0 0.00 0.00 0.00 55 1010.9
20260504012753 10 227 0.0 0.0 0.00 0.00 0.00 55 1010.9
20260504012542 10 227 0.0 0.0 0.00 0.00 0.00 54 1010.9
20260504012520 10 227 0.0 0.0 0.00 0.00 0.00 54 1010.8
20260504012435 10 227 0.0 0.0 0.00 0.00 0.00 53 1010.8
20260504012341 10 227 0.0 0.0 0.00 0.00 0.00 52 1010.8
20260504012241 10 227 0.0 0.0 0.00 0.00 0.00 51 1010.8
20260504012138 10 227 0.0 0.0 0.00 0.00 0.00 51 1010.8
20260504012037 10 227 0.0 0.0 0.00 0.00 0.00 52 1010.8
20260504012020 10 227 0.0 0.0 0.00 0.00 0.00 53 1010.8
20260504011957 10 227 0.0 0.0 0.00 0.00 0.00 53 1010.8
20260504011948 10 227 0.0 0.0 0.00 0.00 0.00 53 1010.8
20260504011736 10 227 0.0 0.0 0.00 0.00 0.00 52 1010.8
20260504011649 11 227 0.0 0.0 0.00 0.00 0.00 52 1010.8
20260504011644 11 227 0.0 0.0 0.00 0.00 0.00 53 1010.7
20260504011520 11 227 0.0 0.0 0.00 0.00 0.00 52 1010.7
20260504011434 11 227 0.0 0.0 0.00 0.00 0.00 52 1010.7
20260504011334 11 227 0.0 0.0 0.00 0.00 0.00 51 1010.7
20260504011234 11 227 0.0 0.0 0.00 0.00 0.00 50 1010.7
20260504011133 11 227 0.0 0.0 0.00 0.00 0.00 50 1010.7
20260504011032 11 227 0.0 0.0 0.00 0.00 0.00 50 1010.7
20260504011020 11 227 0.0 0.0 0.00 0.00 0.00 49 1010.7
20260504010931 11 227 0.0 0.0 0.00 0.00 0.00 49 1010.7
20260504010831 11 0 0.0 0.0 0.00 0.00 0.00 48 1010.7
20260504010731 11 0 0.0 0.0 0.00 0.00 0.00 47 1010.6
20260504010630 11 0 0.0 0.0 0.00 0.00 0.00 47 1010.6
20260504010530 11 0 0.0 0.0 0.00 0.00 0.00 47 1010.6
20260504010520 11 360 0.0 0.0 0.00 0.00 0.00 47 1010.6
20260504010449 11 0 0.0 0.0 0.00 0.00 0.00 46 1010.6
20260504010438 11 0 0.0 0.0 0.00 0.00 0.00 46 1010.6
20260504010230 11 0 0.0 0.0 0.00 0.00 0.00 45 1010.6
20260504010132 11 0 0.0 0.0 0.00 0.00 0.00 45 1010.6
20260504010118 11 0 0.0 0.0 0.00 0.00 0.00 45 1010.6
20260504010111 11 0 0.0 0.0 0.00 0.00 0.00 45 1010.6
20260504010020 11 360 0.0 0.0 0.00 0.00 0.00 45 1010.6
20260504005849 11 0 0.0 0.0 0.00 0.00 0.00 45 1010.7
20260504005736 11 0 0.0 0.0 0.00 0.00 0.00 44 1010.7
20260504005541 11 0 0.0 0.0 0.00 0.00 0.00 45 1010.6
20260504005520 11 360 0.0 0.0 0.00 0.00 0.00 45 1010.5
20260504005426 11 0 0.0 0.0 0.00 0.00 0.00 44 1010.6
20260504005325 11 0 0.0 0.0 0.00 0.00 0.00 44 1010.6
20260504005224 11 0 0.0 0.0 0.00 0.00 0.00 43 1010.6
20260504005125 11 0 0.0 0.0 0.00 0.00 0.00 44 1010.6
20260504005024 11 0 0.0 0.0 0.00 0.00 0.00 43 1010.5
20260504005021 12 360 0.0 0.0 0.00 0.00 0.00 43 1010.4
20260504004924 12 0 0.0 0.0 0.00 0.00 0.00 43 1010.5
20260504004848 12 0 0.0 0.0 0.00 0.00 0.00 43 1010.5
20260504004844 12 0 0.0 0.0 0.00 0.00 0.00 43 1010.5
20260504004839 12 0 0.0 0.0 0.00 0.00 0.00 43 1010.5
20260504004535 12 0 0.0 0.0 0.00 0.00 0.00 43 1010.5
20260504004527 12 0 0.0 0.0 0.00 0.00 0.00 42 1010.5
20260504004520 12 360 0.0 0.0 0.00 0.00 0.00 43 1010.4
20260504004319 12 0 0.0 0.0 0.00 0.00 0.00 42 1010.5
20260504004219 12 0 0.0 0.0 0.00 0.00 0.00 42 1010.5
20260504004118 12 0 0.0 0.0 0.00 0.00 0.00 42 1010.5
20260504004021 12 360 0.0 0.0 0.00 0.00 0.00 42 1010.4
20260504004018 12 0 0.0 0.0 0.00 0.00 0.00 42 1010.4
20260504003918 12 0 0.0 0.0 0.00 0.00 0.00 42 1010.5
20260504003844 12 0 0.0 0.0 0.00 0.00 0.00 42 1010.4
20260504003840 12 0 0.0 0.0 0.00 0.00 0.00 42 1010.4
20260504003835 12 0 0.0 0.0 0.00 0.00 0.00 42 1010.4
20260504003528 12 0 0.0 0.0 0.00 0.00 0.00 42 1010.4
20260504003520 12 360 0.0 0.0 0.00 0.00 0.00 42 1010.3
20260504003312 12 0 0.0 0.0 0.00 0.00 0.00 41 1010.3
20260504003212 12 0 0.0 0.0 0.00 0.00 0.00 41 1010.3
20260504003111 12 0 0.0 0.0 0.00 0.00 0.00 41 1010.3
20260504003020 12 360 0.0 0.0 0.00 0.00 0.00 40 1010.2
20260504003011 12 0 0.0 0.0 0.00 0.00 0.00 40 1010.3
20260504002910 12 0 0.0 0.0 0.00 0.00 0.00 40 1010.3
20260504002809 12 0 0.0 0.0 0.00 0.00 0.00 40 1010.2
20260504002709 12 0 0.0 0.0 0.00 0.00 0.00 40 1010.2
20260504002649 13 0 0.0 0.0 0.00 0.00 0.00 40 1010.2
20260504002606 13 0 0.0 0.0 0.00 0.00 0.00 40 1010.3
20260504002534 13 0 0.0 0.0 0.00 0.00 0.00 40 1010.2
20260504002521 13 360 0.0 0.0 0.00 0.00 0.00 40 1010.1
20260504002416 13 0 0.0 0.0 0.00 0.00 0.00 39 1010.2
20260504002411 13 0 0.0 0.0 0.00 0.00 0.00 40 1010.2
20260504002203 13 0 0.0 0.0 0.00 0.00 0.00 39 1010.2
20260504002102 13 0 0.0 0.0 0.00 0.00 0.00 39 1010.2
20260504002020 13 360 0.0 0.0 0.00 0.00 0.00 39 1010.1
20260504002003 13 0 0.0 0.0 0.00 0.00 0.00 39 1010.2
20260504001925 13 0 0.0 0.0 0.00 0.00 0.00 39 1010.2
20260504001902 13 0 0.0 0.0 0.00 0.00 0.00 39 1010.2
20260504001801 13 0 0.0 0.0 0.00 0.00 0.00 39 1010.2
20260504001702 13 0 0.0 0.0 0.00 0.00 0.00 39 1010.2
20260504001602 13 0 0.0 0.0 0.00 0.00 0.00 39 1010.2
20260504001520 13 360 0.0 0.0 0.00 0.00 0.00 39 1010.1
20260504001502 13 0 0.0 0.0 0.00 0.00 0.00 39 1010.2
20260504001424 13 0 0.0 0.0 0.00 0.00 0.00 39 1010.2
20260504001400 13 0 0.0 0.0 0.00 0.00 0.00 39 1010.1
20260504001300 13 0 0.0 0.0 0.00 0.00 0.00 38 1010.1
20260504001200 13 0 0.0 0.0 0.00 0.00 0.00 38 1010.1
20260504001059 13 0 0.0 0.0 0.00 0.00 0.00 38 1010.1
20260504001020 13 360 0.0 0.0 0.00 0.00 0.00 38 1010.0
20260504000959 13 0 0.0 0.0 0.00 0.00 0.00 38 1010.1
20260504000923 13 0 0.0 0.0 0.00 0.00 0.00 38 1010.1
20260504000858 13 0 0.0 0.0 0.00 0.00 0.00 38 1010.1
20260504000758 13 0 0.0 0.0 0.00 0.00 0.00 38 1010.0
20260504000657 13 0 0.0 0.0 0.00 0.00 0.00 37 1010.1
20260504000556 13 0 0.0 0.0 0.00 0.00 0.00 38 1010.0
20260504000520 13 360 0.0 0.0 0.00 0.00 0.00 38 1009.9
20260504000456 13 0 0.0 0.0 0.00 0.00 0.00 38 1010.0
20260504000423 13 0 0.0 0.0 0.00 0.00 0.00 38 1010.0
20260504000417 13 0 0.0 0.0 0.00 0.00 0.00 38 1010.0
20260504000303 13 0 0.0 0.0 0.00 0.00 0.00 38 1010.0
20260504000108 13 0 0.0 0.0 0.00 0.00 0.00 38 1010.0
20260504000103 13 0 0.0 0.0 0.00 0.00 0.00 38 1010.0
20260504000020 13 360 0.0 0.0 0.00 0.00 0.00 38 1009.9
20260503235922 13 0 0.0 0.0 0.00 0.00 0.00 38 1010.0
20260503235914 13 0 0.0 0.0 0.00 0.00 0.00 38 1010.0
20260503235800 13 0 0.0 0.0 0.00 0.00 0.00 38 1009.9
20260503235551 13 0 0.0 0.0 0.00 0.00 0.00 37 1009.9
20260503235520 13 360 0.0 0.0 0.00 0.00 0.00 37 1009.8
20260503235509 13 0 0.0 1.6 0.00 0.00 0.00 37 1009.9
20260503235457 13 0 0.0 1.6 0.00 0.00 0.00 37 1009.9
20260503235249 13 0 0.0 1.6 0.00 0.00 0.00 38 1009.9
20260503235149 14 0 0.0 1.6 0.00 0.00 0.00 37 1009.8
20260503235048 14 0 0.0 1.6 0.00 0.00 0.00 38 1009.8
20260503235020 14 360 0.0 0.0 0.00 0.00 0.00 38 1009.7
20260503235006 14 0 0.0 1.6 0.00 0.00 0.00 37 1009.8
20260503234954 14 0 0.0 1.6 0.00 0.00 0.00 38 1009.8
20260503234747 14 0 0.0 1.6 0.00 0.00 0.00 37 1009.8
20260503234646 14 0 0.0 1.6 0.00 0.00 0.00 37 1009.8
20260503234559 14 0 0.0 0.0 0.00 0.00 0.00 36 1009.8
20260503234555 14 0 0.0 1.6 0.00 0.00 0.00 37 1009.8
20260503234520 14 360 0.0 0.0 0.00 0.00 0.00 37 1009.7
20260503234416 14 0 0.0 0.0 0.00 0.00 0.00 36 1009.8
20260503234358 14 0 0.0 0.0 0.00 0.00 0.00 36 1009.7
20260503234354 14 0 0.0 0.0 0.00 0.00 0.00 37 1009.8
20260503234201 14 0 0.0 3.2 0.00 0.00 0.00 36 1009.8
20260503234157 14 0 0.0 3.2 0.00 0.00 0.00 37 1009.7
20260503234153 14 0 0.0 0.0 0.00 0.00 0.00 36 1009.7
20260503234023 14 0 0.0 3.2 0.00 0.00 0.00 36 1009.7
20260503234020 14 360 0.0 3.2 0.00 0.00 0.00 36 1009.6
20260503233842 14 0 0.0 3.2 0.00 0.00 0.00 37 1009.8
20260503233742 14 0 0.0 3.2 0.00 0.00 0.00 36 1009.7
20260503233642 14 0 0.0 3.2 0.00 0.00 0.00 36 1009.7
20260503233542 14 0 0.0 3.2 0.00 0.00 0.00 35 1009.7
20260503233520 15 360 0.0 3.2 0.00 0.00 0.00 36 1009.6
20260503233414 14 0 0.0 3.2 0.00 0.00 0.00 36 1009.7
20260503233408 15 0 0.0 3.2 0.00 0.00 0.00 36 1009.8
20260503233402 15 0 0.0 4.8 0.00 0.00 0.00 36 1009.8
20260503233358 14 0 0.0 3.2 0.00 0.00 0.00 36 1009.7
20260503233039 15 0 0.0 6.4 0.00 0.00 0.00 36 1009.8
20260503233035 15 360 0.0 6.4 0.00 0.00 0.00 36 1009.6
20260503232939 15 0 0.0 6.4 0.00 0.00 0.00 36 1009.8
20260503232913 15 0 0.0 6.4 0.00 0.00 0.00 35 1009.7
20260503232838 15 0 0.0 6.4 0.00 0.00 0.00 35 1009.7
20260503232737 15 0 0.0 6.4 0.00 0.00 0.00 35 1009.7
20260503232638 15 0 0.0 6.4 0.00 0.00 0.00 35 1009.8
20260503232537 15 0 0.0 6.4 0.00 0.00 0.00 35 1009.8
20260503232520 15 360 0.0 6.4 0.00 0.00 0.00 35 1009.6
20260503232413 15 0 0.0 6.4 0.00 0.00 0.00 34 1009.8
20260503232336 15 0 0.0 6.4 0.00 0.00 0.00 34 1009.8
20260503232236 15 0 0.0 6.4 0.00 0.00 0.00 34 1009.7
20260503232135 15 0 0.0 6.4 0.00 0.00 0.00 35 1009.7
20260503232035 15 0 0.0 3.2 0.00 0.00 0.00 35 1009.7
20260503232020 15 360 0.0 3.2 0.00 0.00 0.00 35 1009.5
20260503231913 15 0 0.0 3.2 0.00 0.00 0.00 34 1009.7
20260503231834 15 0 0.0 3.2 0.00 0.00 0.00 34 1009.7
20260503231733 15 0 0.0 3.2 0.00 0.00 0.00 34 1009.8
20260503231633 15 0 0.0 3.2 0.00 0.00 0.00 35 1009.7
20260503231535 15 360 0.0 3.2 0.00 0.00 0.00 34 1009.5
20260503231533 15 0 0.0 3.2 0.00 0.00 0.00 34 1009.7
20260503231413 15 0 0.0 3.2 0.00 0.00 0.00 34 1009.7
20260503231345 15 0 0.0 3.2 0.00 0.00 0.00 34 1009.7
20260503231341 15 0 0.0 3.2 0.00 0.00 0.00 34 1009.7
20260503231130 15 0 0.0 3.2 0.00 0.00 0.00 33 1009.7
20260503231030 15 0 0.0 3.2 0.00 0.00 0.00 34 1009.7
20260503231020 15 360 0.0 1.6 0.00 0.00 0.00 34 1009.5
20260503230911 15 0 0.0 1.6 0.00 0.00 0.00 34 1009.7
20260503230829 15 0 0.0 3.2 0.00 0.00 0.00 35 1009.7
20260503230729 15 0 0.0 3.2 0.00 0.00 0.00 34 1009.7
20260503230628 15 0 0.0 6.4 0.00 0.00 0.00 34 1009.7
20260503230600 15 0 0.0 6.4 0.00 0.00 0.00 33 1009.7
20260503230556 15 0 0.0 6.4 0.00 0.00 0.00 33 1009.7
20260503230551 15 0 0.0 6.4 0.00 0.00 0.00 33 1009.7
20260503230520 15 360 0.0 6.4 0.00 0.00 0.00 33 1009.5
20260503230434 15 0 0.0 6.4 0.00 0.00 0.00 33 1009.7
20260503230227 15 0 0.0 12.9 0.00 0.00 0.00 33 1009.7
20260503230126 15 0 0.0 12.9 0.00 0.00 0.00 33 1009.7
20260503230039 15 0 0.0 12.9 0.00 0.00 0.00 32 1009.6
20260503230035 15 0 0.0 12.9 0.00 0.00 0.00 33 1009.6
20260503230020 15 360 0.0 12.9 0.00 0.00 0.00 33 1009.4
20260503225911 15 0 0.0 12.9 0.00 0.00 0.00 32 1009.6
20260503225824 15 0 0.0 12.9 0.00 0.00 0.00 33 1009.6
20260503225723 15 0 0.0 12.9 0.00 0.00 0.00 34 1009.6
20260503225622 15 0 0.0 12.9 0.00 0.00 0.00 33 1009.6
20260503225522 16 0 0.0 12.9 0.00 0.00 0.00 33 1009.6
20260503225520 16 360 3.2 12.9 0.00 0.00 0.00 32 1009.4
20260503225411 16 0 0.0 12.9 0.00 0.00 0.00 33 1009.6
20260503225321 16 0 0.0 12.9 0.00 0.00 0.00 33 1009.6
20260503225219 16 0 0.0 12.9 0.00 0.00 0.00 33 1009.6
20260503225147 16 0 0.0 12.9 0.00 0.00 0.00 33 1009.6
20260503225143 16 0 0.0 12.9 0.00 0.00 0.00 32 1009.6
20260503225137 16 0 0.0 12.9 0.00 0.00 0.00 32 1009.6
20260503225020 16 360 0.0 12.9 0.00 0.00 0.00 33 1009.4
20260503224908 16 0 0.0 12.9 0.00 0.00 0.00 33 1009.6
20260503224831 16 0 0.0 12.9 0.00 0.00 0.00 33 1009.6
20260503224827 16 0 0.0 12.9 0.00 0.00 0.00 32 1009.6
20260503224631 16 0 0.0 4.8 0.00 0.00 0.00 32 1009.6
20260503224617 16 0 0.0 4.8 0.00 0.00 0.00 32 1009.6
20260503224526 16 0 0.0 4.8 0.00 0.00 0.00 32 1009.6
20260503224520 16 360 0.0 4.8 0.00 0.00 0.00 32 1009.4
20260503224517 16 0 0.0 4.8 0.00 0.00 0.00 32 1009.6
20260503224315 16 0 0.0 4.8 0.00 0.00 0.00 32 1009.7
20260503224215 16 0 0.0 4.8 0.00 0.00 0.00 33 1009.6
20260503224128 16 0 0.0 4.8 0.00 0.00 0.00 32 1009.7
20260503224124 16 0 0.0 4.8 0.00 0.00 0.00 31 1009.7
20260503224051 16 360 0.0 4.8 0.00 0.00 0.00 32 1009.5
20260503223908 16 0 0.0 4.8 0.00 0.00 0.00 31 1009.7
20260503223827 16 0 0.0 4.8 0.00 0.00 0.00 31 1009.7
20260503223823 16 0 0.0 4.8 0.00 0.00 0.00 31 1009.7
20260503223627 16 0 0.0 6.4 0.00 0.00 0.00 31 1009.6
20260503223623 16 0 0.0 6.4 0.00 0.00 0.00 31 1009.7
20260503223521 16 360 0.0 6.4 0.00 0.00 0.00 31 1009.4
20260503223408 16 0 0.0 6.4 0.00 0.00 0.00 32 1009.7
20260503223313 16 0 0.0 9.7 0.00 0.00 0.00 32 1009.6
20260503223243 16 0 0.0 9.7 0.00 0.00 0.00 32 1009.7
20260503223112 16 0 0.0 17.7 0.00 0.00 0.00 32 1009.7
20260503223024 16 0 0.0 17.7 0.00 0.00 0.00 32 1009.7
20260503223021 16 360 0.0 17.7 0.00 0.00 0.00 32 1009.5
20260503223015 16 0 0.0 17.7 0.00 0.00 0.00 32 1009.6
20260503222822 16 0 0.0 17.7 0.00 0.00 0.00 31 1009.6
20260503222818 16 0 0.0 17.7 0.00 0.00 0.00 32 1009.6
20260503222609 16 0 0.0 17.7 0.00 0.00 0.00 31 1009.6
20260503222535 16 360 0.0 17.7 0.00 0.00 0.00 31 1009.4
20260503222506 16 0 0.0 17.7 0.00 0.00 0.00 31 1009.6
20260503222425 16 0 0.0 17.7 0.00 0.00 0.00 31 1009.6
20260503222416 16 0 0.0 17.7 0.00 0.00 0.00 32 1009.6
20260503222205 16 248 0.0 17.7 0.00 0.00 0.00 31 1009.6
20260503222104 16 265 0.0 22.5 0.00 0.00 0.00 31 1009.5
20260503222020 16 290 0.0 22.5 0.00 0.00 0.00 31 1009.4
20260503222004 16 288 0.0 22.5 0.00 0.00 0.00 31 1009.6
20260503221905 16 246 0.0 22.5 0.00 0.00 0.00 31 1009.5
20260503221803 16 236 0.0 22.5 0.00 0.00 0.00 31 1009.5
20260503221703 16 225 0.0 22.5 0.00 0.00 0.00 31 1009.5
20260503221602 16 0 0.0 22.5 0.00 0.00 0.00 32 1009.5
20260503221520 16 360 0.0 22.5 0.00 0.00 0.00 32 1009.2
20260503221501 16 0 0.0 22.5 0.00 0.00 0.00 31 1009.4
20260503221406 16 0 0.0 22.5 0.00 0.00 0.00 31 1009.5
20260503221400 16 0 0.0 22.5 0.00 0.00 0.00 31 1009.5
20260503221300 16 0 0.0 22.5 0.00 0.00 0.00 30 1009.5
20260503221200 16 0 0.0 22.5 0.00 0.00 0.00 30 1009.5
20260503221059 16 268 0.0 14.5 0.00 0.00 0.00 30 1009.5
20260503221035 16 237 0.0 14.5 0.00 0.00 0.00 31 1009.2
20260503220958 16 248 0.0 14.5 0.00 0.00 0.00 31 1009.4
20260503220904 16 223 0.0 12.9 0.00 0.00 0.00 31 1009.5
20260503220859 16 221 0.0 12.9 0.00 0.00 0.00 31 1009.5
20260503220757 16 263 0.0 12.9 0.00 0.00 0.00 31 1009.5
20260503220657 16 0 0.0 12.9 0.00 0.00 0.00 31 1009.5
20260503220556 16 0 0.0 12.9 0.00 0.00 0.00 30 1009.5
20260503220535 16 360 0.0 12.9 0.00 0.00 0.00 30 1009.3
20260503220456 16 0 0.0 12.9 0.00 0.00 0.00 30 1009.5
20260503220401 16 0 0.0 12.9 0.00 0.00 0.00 30 1009.5
20260503220356 16 0 0.0 12.9 0.00 0.00 0.00 31 1009.5
20260503220253 16 0 0.0 12.9 0.00 0.00 0.00 31 1009.5
20260503220153 16 0 0.0 12.9 0.00 0.00 0.00 31 1009.5
20260503220053 16 0 0.0 9.7 0.00 0.00 0.00 31 1009.6
20260503220020 16 360 0.0 22.5 0.00 0.00 0.00 32 1009.4
20260503215951 16 0 1.6 24.1 0.00 0.00 0.00 32 1009.6
20260503215858 16 0 1.6 24.1 0.00 0.00 0.00 32 1009.5
20260503215850 16 0 1.6 24.1 0.00 0.00 0.00 31 1009.5
20260503215749 16 0 1.6 24.1 0.00 0.00 0.00 30 1009.5
20260503215649 16 0 1.6 24.1 0.00 0.00 0.00 31 1009.5
20260503215549 16 0 1.6 24.1 0.00 0.00 0.00 31 1009.5
20260503215520 16 360 0.0 24.1 0.00 0.00 0.00 30 1009.4
20260503215447 16 0 1.6 24.1 0.00 0.00 0.00 30 1009.6
20260503215406 16 0 1.6 24.1 0.00 0.00 0.00 31 1009.5
20260503215355 16 0 1.6 24.1 0.00 0.00 0.00 30 1009.5
20260503215146 16 0 1.6 24.1 0.00 0.00 0.00 29 1009.5
20260503215100 16 225 0.0 19.3 0.00 0.00 0.00 30 1009.5
20260503215054 16 0 1.6 24.1 0.00 0.00 0.00 29 1009.5
20260503215020 16 281 22.5 24.1 0.00 0.00 0.00 30 1009.3
20260503214859 16 246 0.0 14.5 0.00 0.00 0.00 29 1009.5
20260503214845 16 298 0.0 14.5 0.00 0.00 0.00 29 1009.5
20260503214744 16 226 0.0 14.5 0.00 0.00 0.00 30 1009.5
20260503214644 16 260 0.0 4.8 0.00 0.00 0.00 31 1009.5
20260503214543 16 276 0.0 11.3 0.00 0.00 0.00 31 1009.5
20260503214520 16 286 0.0 11.3 0.00 0.00 0.00 31 1009.3
20260503214443 16 254 0.0 11.3 0.00 0.00 0.00 31 1009.5
20260503214402 16 250 0.0 11.3 0.00 0.00 0.00 30 1009.5
20260503214358 16 264 0.0 11.3 0.00 0.00 0.00 31 1009.4
20260503214351 16 267 0.0 11.3 0.00 0.00 0.00 31 1009.4
20260503214142 16 284 0.0 11.3 0.00 0.00 0.00 30 1009.5
20260503214123 16 250 1.6 14.5 0.00 0.00 0.00 31 1009.5
20260503214041 16 289 1.6 14.5 0.00 0.00 0.00 30 1009.5
20260503214035 16 238 0.0 14.5 0.00 0.00 0.00 30 1009.3
20260503214007 16 291 1.6 14.5 0.00 0.00 0.00 30 1009.5
20260503213840 16 302 1.6 14.5 0.00 0.00 0.00 31 1009.5
20260503213738 16 232 1.6 14.5 0.00 0.00 0.00 30 1009.4
20260503213638 16 195 1.6 14.5 0.00 0.00 0.00 32 1009.4
20260503213536 16 241 1.6 14.5 0.00 0.00 0.00 32 1009.4
20260503213436 16 294 1.6 14.5 0.00 0.00 0.00 30 1009.4
20260503213359 16 272 1.6 14.5 0.00 0.00 0.00 30 1009.3
20260503213336 16 243 1.6 14.5 0.00 0.00 0.00 30 1009.3
20260503213235 16 241 1.6 20.9 0.00 0.00 0.00 30 1009.4
20260503213135 16 259 1.6 20.9 0.00 0.00 0.00 30 1009.4
20260503213050 16 238 1.6 20.9 0.00 0.00 0.00 33 1009.4
20260503213045 16 211 0.0 20.9 0.00 0.00 0.00 31 1009.3
20260503213035 16 268 0.0 20.9 0.00 0.00 0.00 31 1009.2
20260503212856 16 247 1.6 20.9 0.00 0.00 0.00 32 1009.4
20260503212851 16 0 1.6 20.9 0.00 0.00 0.00 30 1009.5
20260503212846 16 225 1.6 20.9 0.00 0.00 0.00 32 1009.4
20260503212634 16 0 1.6 20.9 0.00 0.00 0.00 31 1009.4
20260503212535 16 0 1.6 20.9 0.00 0.00 0.00 31 1009.4
20260503212520 16 360 0.0 20.9 0.00 0.00 0.00 31 1009.2
20260503212434 16 0 1.6 20.9 0.00 0.00 0.00 30 1009.4
20260503212348 16 0 1.6 17.7 0.00 0.00 0.00 30 1009.4
20260503212342 16 0 1.6 20.9 0.00 0.00 0.00 30 1009.4
20260503212133 16 0 1.6 24.1 0.00 0.00 0.00 29 1009.4
20260503212114 16 0 1.6 24.1 0.00 0.00 0.00 31 1009.5
20260503212032 16 0 1.6 24.1 0.00 0.00 0.00 29 1009.5
20260503212020 16 360 0.0 24.1 0.00 0.00 0.00 31 1009.3
20260503212002 16 0 1.6 24.1 0.00 0.00 0.00 31 1009.5
20260503211831 16 0 1.6 24.1 0.00 0.00 0.00 31 1009.5
20260503211730 16 0 1.6 24.1 0.00 0.00 0.00 31 1009.4
20260503211630 16 0 1.6 24.1 0.00 0.00 0.00 31 1009.4
20260503211530 16 0 1.6 24.1 0.00 0.00 0.00 31 1009.4
20260503211520 16 360 0.0 24.1 0.00 0.00 0.00 30 1009.3
20260503211428 16 0 1.6 24.1 0.00 0.00 0.00 30 1009.5
20260503211328 16 0 1.6 24.1 0.00 0.00 0.00 30 1009.4
20260503211228 16 0 1.6 24.1 0.00 0.00 0.00 30 1009.3
20260503211214 16 0 1.6 22.5 0.00 0.00 0.00 30 1009.4
20260503211211 16 0 1.6 22.5 0.00 0.00 0.00 29 1009.4
20260503211205 16 0 1.6 22.5 0.00 0.00 0.00 29 1009.4
20260503211159 16 0 1.6 22.5 0.00 0.00 0.00 32 1009.4
20260503211041 16 0 1.6 22.5 0.00 0.00 0.00 29 1009.5
20260503211035 16 360 0.0 20.9 0.00 0.00 0.00 30 1009.3
20260503210725 16 0 1.6 22.5 0.00 0.00 0.00 29 1009.4
20260503210643 16 0 1.6 22.5 0.00 0.00 0.00 30 1009.4
20260503210638 16 0 0.0 22.5 0.00 0.00 0.00 31 1009.4
20260503210633 16 0 1.6 22.5 0.00 0.00 0.00 31 1009.4
20260503210520 16 360 0.0 19.3 0.00 0.00 0.00 30 1009.2
20260503210501 15 0 1.6 22.5 0.00 0.00 0.00 29 1009.4
20260503210324 16 0 0.0 22.5 0.00 0.00 0.00 31 1009.4
20260503210238 16 0 1.6 17.7 0.00 0.00 0.00 31 1009.4
20260503210232 16 0 1.6 17.7 0.00 0.00 0.00 29 1009.4
20260503210023 16 0 1.6 17.7 0.00 0.00 0.00 31 1009.4
20260503210020 16 360 0.0 17.7 0.00 0.00 0.00 31 1009.3
20260503205936 16 0 1.6 17.7 0.00 0.00 0.00 30 1009.5
20260503205927 16 0 1.6 17.7 0.00 0.00 0.00 30 1009.5
20260503205746 16 0 0.0 17.7 0.00 0.00 0.00 30 1009.4
20260503205741 16 0 1.6 17.7 0.00 0.00 0.00 30 1009.3
20260503205628 16 0 1.6 17.7 0.00 0.00 0.00 30 1009.3
20260503205535 16 360 0.0 17.7 0.00 0.00 0.00 30 1009.3
20260503205459 16 0 0.0 17.7 0.00 0.00 0.00 30 1009.5
20260503205331 16 0 0.0 9.7 0.00 0.00 0.00 31 1009.4
20260503205326 16 0 0.0 17.7 0.00 0.00 0.00 30 1009.4
20260503205116 16 0 0.0 14.5 0.00 0.00 0.00 30 1009.4
20260503205059 16 0 0.0 14.5 0.00 0.00 0.00 31 1009.6
20260503205052 16 0 0.0 14.5 0.00 0.00 0.00 31 1009.4
20260503205020 16 360 0.0 14.5 0.00 0.00 0.00 31 1009.3
20260503204939 16 0 0.0 14.5 0.00 0.00 0.00 31 1009.5
20260503204931 16 0 0.0 14.5 0.00 0.00 0.00 31 1009.5
20260503204628 16 0 1.6 27.4 0.00 0.00 0.00 32 1009.6
20260503204623 16 0 1.6 27.4 0.00 0.00 0.00 31 1009.5
20260503204520 16 360 0.0 25.7 0.00 0.00 0.00 32 1009.4
20260503204412 16 0 1.6 27.4 0.00 0.00 0.00 31 1009.6
20260503204351 16 0 1.6 27.4 0.00 0.00 0.00 31 1009.6
20260503204328 16 0 1.6 27.4 0.00 0.00 0.00 31 1009.7
20260503204323 16 0 1.6 27.4 0.00 0.00 0.00 30 1009.6
20260503204112 16 0 1.6 27.4 0.00 0.00 0.00 31 1009.6
20260503204021 16 360 0.0 25.7 0.00 0.00 0.00 31 1009.4
20260503204012 16 0 1.6 27.4 0.00 0.00 0.00 31 1009.6
20260503203912 16 0 1.6 27.4 0.00 0.00 0.00 30 1009.6
20260503203849 16 0 1.6 27.4 0.00 0.00 0.00 30 1009.6
20260503203825 16 0 1.6 14.5 0.00 0.00 0.00 32 1009.5
20260503203820 16 0 0.0 27.4 0.00 0.00 0.00 31 1009.6
20260503203608 16 0 1.6 14.5 0.00 0.00 0.00 32 1009.5
20260503203520 16 360 0.0 14.5 0.00 0.00 0.00 31 1009.3
20260503203507 16 0 1.6 14.5 0.00 0.00 0.00 29 1009.5
20260503203406 16 0 1.6 14.5 0.00 0.00 0.00 29 1009.5
20260503203349 16 0 1.6 14.5 0.00 0.00 0.00 29 1009.5
20260503203306 16 0 1.6 14.5 0.00 0.00 0.00 30 1009.6
20260503203246 16 0 1.6 14.5 0.00 0.00 0.00 30 1009.7
20260503203241 16 0 1.6 22.5 0.00 0.00 0.00 30 1009.7
20260503203237 16 0 1.6 22.5 0.00 0.00 0.00 31 1009.7
20260503203231 16 0 1.6 14.5 0.00 0.00 0.00 29 1009.6
20260503203036 16 360 0.0 19.3 0.00 0.00 0.00 30 1009.5
20260503202847 16 0 1.6 22.5 0.00 0.00 0.00 31 1009.7
20260503202803 16 0 1.6 22.5 0.00 0.00 0.00 30 1009.7
20260503202702 16 0 1.6 22.5 0.00 0.00 0.00 30 1009.7
20260503202601 16 0 1.6 22.5 0.00 0.00 0.00 31 1009.6
20260503202528 16 0 1.6 22.5 0.00 0.00 0.00 32 1009.7
20260503202521 16 360 6.4 19.3 0.00 0.00 0.00 32 1009.5
20260503202408 16 0 1.6 22.5 0.00 0.00 0.00 31 1009.6
20260503202200 16 0 1.6 22.5 0.00 0.00 0.00 30 1009.6
20260503202112 16 0 1.6 14.5 0.00 0.00 0.00 32 1009.7
20260503202059 16 0 0.0 22.5 0.00 0.00 0.00 32 1009.7
20260503202020 16 360 0.0 14.5 0.00 0.00 0.00 32 1009.5
20260503202003 16 0 1.6 14.5 0.00 0.00 0.00 32 1009.7
20260503201954 16 0 1.6 14.5 0.00 0.00 0.00 32 1009.7
20260503201758 16 0 1.6 14.5 0.00 0.00 0.00 32 1009.7
20260503201710 16 0 0.0 14.5 0.00 0.00 0.00 31 1009.7
20260503201705 16 0 1.6 14.5 0.00 0.00 0.00 30 1009.8
20260503201542 16 0 0.0 9.7 0.00 0.00 0.00 30 1009.7
20260503201537 16 0 0.0 9.7 0.00 0.00 0.00 32 1009.8
20260503201532 16 0 1.6 9.7 0.00 0.00 0.00 30 1009.8
20260503201527 16 0 0.0 9.7 0.00 0.00 0.00 31 1009.7
20260503201520 16 360 0.0 9.7 0.00 0.00 0.00 31 1009.5
20260503201411 16 0 0.0 9.7 0.00 0.00 0.00 31 1009.7
20260503201053 16 0 1.6 29.0 0.00 0.00 0.00 29 1009.7
20260503201020 16 360 0.0 29.0 0.00 0.00 0.00 30 1009.6
20260503200953 16 0 1.6 29.0 0.00 0.00 0.00 30 1009.8
20260503200844 16 0 1.6 29.0 0.00 0.00 0.00 33 1009.8
20260503200752 16 0 1.6 29.0 0.00 0.00 0.00 33 1009.8
20260503200651 16 0 1.6 29.0 0.00 0.00 0.00 32 1009.8
20260503200551 16 0 1.6 29.0 0.00 0.00 0.00 31 1009.8
20260503200520 16 360 0.0 29.0 0.00 0.00 0.00 31 1009.6
20260503200518 16 0 1.6 29.0 0.00 0.00 0.00 31 1009.8
20260503200358 16 0 1.6 29.0 0.00 0.00 0.00 31 1009.8
20260503200150 16 219 1.6 29.0 0.00 0.00 0.00 31 1009.8
20260503200050 16 290 1.6 19.3 0.00 0.00 0.00 30 1009.9
20260503200020 16 275 0.0 19.3 0.00 0.00 0.00 30 1009.7
20260503195948 16 307 0.0 19.3 0.00 0.00 0.00 34 1009.9
20260503195844 16 275 1.6 30.6 0.00 0.00 0.00 33 1009.8
20260503195746 16 288 1.6 30.6 0.00 0.00 0.00 32 1009.9
20260503195700 16 304 1.6 30.6 0.00 0.00 0.00 34 1009.9
20260503195655 16 289 1.6 30.6 0.00 0.00 0.00 31 1009.8
20260503195520 16 275 0.0 30.6 0.00 0.00 0.00 34 1009.6
20260503195447 16 246 1.6 30.6 0.00 0.00 0.00 33 1009.8
20260503195344 16 296 1.6 30.6 0.00 0.00 0.00 32 1009.9
20260503195321 16 248 1.6 30.6 0.00 0.00 0.00 32 1009.8
20260503195316 16 313 1.6 30.6 0.00 0.00 0.00 31 1009.8
20260503195105 16 360 0.0 30.6 0.00 0.00 0.00 32 1009.7
20260503195053 16 0 1.6 30.6 0.00 0.00 0.00 32 1009.9
20260503194844 16 283 1.6 22.5 0.00 0.00 0.00 32 1009.9
20260503194742 16 226 1.6 22.5 0.00 0.00 0.00 32 1009.8
20260503194641 16 244 0.0 22.5 0.00 0.00 0.00 33 1009.8
20260503194541 16 245 0.0 12.9 0.00 0.00 0.00 32 1009.8
20260503194520 16 264 0.0 12.9 0.00 0.00 0.00 31 1009.7
20260503194439 16 272 0.0 12.9 0.00 0.00 0.00 33 1009.9
20260503194344 16 232 0.0 12.9 0.00 0.00 0.00 31 1009.9
20260503194338 16 250 0.0 12.9 0.00 0.00 0.00 31 1009.9
20260503194239 16 268 0.0 12.9 0.00 0.00 0.00 33 1009.9
20260503194138 16 296 1.6 12.9 0.00 0.00 0.00 32 1010.0
20260503194038 16 0 1.6 12.9 0.00 0.00 0.00 33 1010.0
20260503194020 16 180 3.2 12.9 0.00 0.00 0.00 34 1009.8
20260503193937 16 254 1.6 12.9 0.00 0.00 0.00 33 1010.0
20260503193837 16 0 1.6 19.3 0.00 0.00 0.00 31 1010.0
20260503193736 16 0 1.6 19.3 0.00 0.00 0.00 31 1009.9
20260503193706 16 263 3.2 20.9 0.00 0.00 0.00 31 1010.1
20260503193635 16 0 1.6 19.3 0.00 0.00 0.00 31 1010.0
20260503193603 16 210 3.2 22.5 0.00 0.00 0.00 31 1010.1
20260503193557 16 0 1.6 19.3 0.00 0.00 0.00 31 1010.1
20260503193548 16 298 3.2 20.9 0.00 0.00 0.00 32 1010.1
20260503193520 16 360 0.0 19.3 0.00 0.00 0.00 32 1009.9
20260503193233 16 331 3.2 22.5 0.00 0.00 0.00 32 1010.1
20260503193133 16 0 1.6 22.5 0.00 0.00 0.00 34 1010.2
20260503193105 16 273 3.2 25.7 0.00 0.00 0.00 32 1010.1
20260503193100 16 221 3.2 25.7 0.00 0.00 0.00 30 1010.1
20260503193055 16 182 3.2 22.5 0.00 0.00 0.00 32 1010.1
20260503193020 16 158 0.0 25.7 0.00 0.00 0.00 32 1009.9
20260503192938 16 322 3.2 25.7 0.00 0.00 0.00 30 1010.1
20260503192731 16 260 3.2 25.7 0.00 0.00 0.00 31 1010.0
20260503192631 16 217 3.2 25.7 0.00 0.00 0.00 31 1010.1
20260503192528 16 275 3.2 25.7 0.00 0.00 0.00 32 1010.1
20260503192521 16 240 1.6 27.4 0.00 0.00 0.00 32 1009.9
20260503192429 16 251 3.2 27.4 0.00 0.00 0.00 34 1010.1
20260503192340 16 262 3.2 27.4 0.00 0.00 0.00 34 1010.0
20260503192328 16 245 3.2 27.4 0.00 0.00 0.00 34 1010.0
20260503192241 16 263 3.2 27.4 0.00 0.00 0.00 31 1010.0
20260503192236 16 257 3.2 27.4 0.00 0.00 0.00 32 1010.0
20260503192101 16 270 1.6 27.4 0.00 0.00 0.00 32 1010.0
20260503192026 16 248 3.2 27.4 0.00 0.00 0.00 31 1010.0
20260503192021 16 212 25.7 27.4 0.00 0.00 0.00 31 1009.9
20260503191947 16 296 1.6 27.4 0.00 0.00 0.00 30 1010.1
20260503191825 16 263 1.6 27.4 0.00 0.00 0.00 32 1010.0
20260503191751 16 207 1.6 27.4 0.00 0.00 0.00 33 1010.1
20260503191747 16 283 1.6 27.4 0.00 0.00 0.00 32 1010.2
20260503191741 16 261 1.6 27.4 0.00 0.00 0.00 34 1010.1
20260503191521 16 360 1.6 19.3 0.00 0.00 0.00 32 1009.9
20260503191442 16 271 1.6 19.3 0.00 0.00 0.00 32 1010.2
20260503191437 16 226 1.6 19.3 0.00 0.00 0.00 32 1010.1
20260503191429 16 0 1.6 19.3 0.00 0.00 0.00 32 1010.2
20260503191222 16 0 1.6 19.3 0.00 0.00 0.00 33 1010.2
20260503191121 16 0 1.6 19.3 0.00 0.00 0.00 34 1010.1
20260503191020 16 0 0.0 16.1 0.00 0.00 0.00 32 1010.2
20260503190920 16 0 0.0 16.1 0.00 0.00 0.00 32 1010.3
20260503190839 15 0 0.0 16.1 0.00 0.00 0.00 33 1010.2
20260503190819 15 0 0.0 12.9 0.00 0.00 0.00 33 1010.2
20260503190733 15 0 1.6 20.9 0.00 0.00 0.00 35 1010.3
20260503190727 15 0 1.6 20.9 0.00 0.00 0.00 35 1010.2
20260503190521 15 360 0.0 20.9 0.00 0.00 0.00 35 1010.0
20260503190518 15 0 1.6 20.9 0.00 0.00 0.00 35 1010.3
20260503190437 15 0 1.6 20.9 0.00 0.00 0.00 34 1010.2
20260503190431 15 0 1.6 20.9 0.00 0.00 0.00 35 1010.2
20260503190423 15 0 1.6 20.9 0.00 0.00 0.00 34 1010.2
20260503190216 15 0 1.6 27.4 0.00 0.00 0.00 33 1010.2
20260503190116 15 0 1.6 27.4 0.00 0.00 0.00 34 1010.2
20260503190020 15 360 0.0 27.4 0.00 0.00 0.00 32 1010.1
20260503190015 15 0 1.6 27.4 0.00 0.00 0.00 32 1010.3
20260503185930 15 0 1.6 27.4 0.00 0.00 0.00 31 1010.3
20260503185922 15 0 1.6 27.4 0.00 0.00 0.00 31 1010.4
20260503185729 15 0 1.6 27.4 0.00 0.00 0.00 32 1010.3
20260503185724 15 0 1.6 27.4 0.00 0.00 0.00 32 1010.4
20260503185528 15 0 1.6 27.4 0.00 0.00 0.00 32 1010.5
20260503185523 15 0 1.6 27.4 0.00 0.00 0.00 31 1010.4
20260503185520 15 360 0.0 27.4 0.00 0.00 0.00 31 1010.2
20260503185336 15 0 1.6 27.4 0.00 0.00 0.00 32 1010.5
20260503185313 15 0 1.6 27.4 0.00 0.00 0.00 33 1010.3
20260503185213 15 0 1.6 20.9 0.00 0.00 0.00 32 1010.4
20260503185112 15 0 3.2 20.9 0.00 0.00 0.00 31 1010.3
20260503185021 15 360 1.6 24.1 0.00 0.00 0.00 32 1010.2
20260503185011 15 0 1.6 29.0 0.00 0.00 0.00 32 1010.4
20260503184911 15 0 1.6 29.0 0.00 0.00 0.00 35 1010.5
20260503184834 15 0 1.6 29.0 0.00 0.00 0.00 35 1010.5
20260503184809 15 0 1.6 29.0 0.00 0.00 0.00 36 1010.4
20260503184710 15 0 1.6 29.0 0.00 0.00 0.00 33 1010.4
20260503184607 15 0 3.2 29.0 0.00 0.00 0.00 33 1010.3
20260503184554 15 0 3.2 29.0 0.00 0.00 0.00 32 1010.4
20260503184520 15 360 0.0 24.1 0.00 0.00 0.00 31 1010.2
20260503184507 15 0 3.2 29.0 0.00 0.00 0.00 31 1010.3
20260503184441 15 0 3.2 29.0 0.00 0.00 0.00 32 1010.4
20260503184306 15 0 1.6 29.0 0.00 0.00 0.00 32 1010.3
20260503184208 15 0 1.6 29.0 0.00 0.00 0.00 33 1010.4
20260503184108 15 0 1.6 29.0 0.00 0.00 0.00 32 1010.4
20260503184034 15 0 1.6 24.1 0.00 0.00 0.00 32 1010.4
20260503184022 15 360 0.0 22.5 0.00 0.00 0.00 32 1010.3
20260503183921 15 0 1.6 24.1 0.00 0.00 0.00 31 1010.3
20260503183911 15 0 1.6 24.1 0.00 0.00 0.00 33 1010.3
20260503183732 15 0 3.2 24.1 0.00 0.00 0.00 30 1010.4
20260503183727 15 0 3.2 22.5 0.00 0.00 0.00 33 1010.3
20260503183723 15 0 3.2 22.5 0.00 0.00 0.00 34 1010.3
20260503183719 15 0 3.2 22.5 0.00 0.00 0.00 32 1010.3
20260503183715 15 0 3.2 24.1 0.00 0.00 0.00 32 1010.4
20260503183556 15 0 3.2 22.5 0.00 0.00 0.00 32 1010.5
20260503183520 15 360 3.2 22.5 0.00 0.00 0.00 32 1010.3
20260503183333 15 0 3.2 22.5 0.00 0.00 0.00 32 1010.4
20260503183110 15 0 3.2 22.5 0.00 0.00 0.00 32 1010.4
20260503183020 15 360 0.0 22.5 0.00 0.00 0.00 33 1010.3
20260503182901 15 0 3.2 22.5 0.00 0.00 0.00 32 1010.5
20260503182829 15 0 3.2 22.5 0.00 0.00 0.00 32 1010.5
20260503182800 15 0 3.2 22.5 0.00 0.00 0.00 32 1010.6
20260503182658 15 0 3.2 22.5 0.00 0.00 0.00 32 1010.5
20260503182558 15 0 1.6 22.5 0.00 0.00 0.00 33 1010.5
20260503182521 15 360 1.6 20.9 0.00 0.00 0.00 33 1010.4
20260503182458 15 0 1.6 20.9 0.00 0.00 0.00 33 1010.5
20260503182357 15 0 1.6 20.9 0.00 0.00 0.00 32 1010.4
20260503182328 15 0 1.6 20.9 0.00 0.00 0.00 34 1010.4
20260503182257 15 0 1.6 20.9 0.00 0.00 0.00 34 1010.5
20260503182156 15 0 1.6 20.9 0.00 0.00 0.00 33 1010.5
20260503182125 15 0 3.2 20.9 0.00 0.00 0.00 33 1010.6
20260503182056 15 0 1.6 20.9 0.00 0.00 0.00 33 1010.5
20260503182023 15 0 1.6 20.9 0.00 0.00 0.00 33 1010.7
20260503182020 15 360 0.0 20.9 0.00 0.00 0.00 33 1010.5
20260503182018 15 0 3.2 20.9 0.00 0.00 0.00 33 1010.6
20260503182009 15 0 3.2 20.9 0.00 0.00 0.00 33 1010.7
20260503181654 15 0 1.6 20.9 0.00 0.00 0.00 33 1010.6
20260503181554 15 0 3.2 20.9 0.00 0.00 0.00 34 1010.6
20260503181520 15 360 0.0 20.9 0.00 0.00 0.00 34 1010.4
20260503181452 15 0 1.6 20.9 0.00 0.00 0.00 35 1010.5
20260503181325 15 0 3.2 20.9 0.00 0.00 0.00 35 1010.5
20260503181251 15 0 3.2 20.9 0.00 0.00 0.00 34 1010.5
20260503181151 15 0 3.2 20.9 0.00 0.00 0.00 34 1010.4
20260503181050 15 0 3.2 20.9 0.00 0.00 0.00 34 1010.4
20260503181032 14 0 3.2 17.7 0.00 0.00 0.00 36 1010.4
20260503181026 14 0 3.2 20.9 0.00 0.00 0.00 35 1010.5
20260503181021 15 360 0.0 20.9 0.00 0.00 0.00 34 1010.4
20260503180909 14 0 3.2 17.7 0.00 0.00 0.00 36 1010.4
20260503180758 14 0 3.2 17.7 0.00 0.00 0.00 35 1010.4
20260503180630 14 0 1.6 16.1 0.00 0.00 0.00 33 1010.4
20260503180624 14 0 1.6 17.7 0.00 0.00 0.00 35 1010.4
20260503180520 14 360 3.2 17.7 0.00 0.00 0.00 35 1010.2
20260503180511 14 0 3.2 17.7 0.00 0.00 0.00 32 1010.3
20260503180502 14 0 1.6 16.1 0.00 0.00 0.00 33 1010.4
20260503180147 14 0 1.6 16.1 0.00 0.00 0.00 32 1010.4
20260503180046 14 0 1.6 16.1 0.00 0.00 0.00 33 1010.4
20260503180020 14 360 0.0 16.1 0.00 0.00 0.00 34 1010.4
20260503175945 14 0 1.6 16.1 0.00 0.00 0.00 34 1010.5
20260503175825 14 0 1.6 16.1 0.00 0.00 0.00 32 1010.4
20260503175741 14 0 1.6 16.1 0.00 0.00 0.00 33 1010.4
20260503175641 14 0 1.6 16.1 0.00 0.00 0.00 33 1010.4
20260503175602 14 0 1.6 20.9 0.00 0.00 0.00 34 1010.5
20260503175521 14 360 6.4 20.9 0.00 0.00 0.00 35 1010.4
20260503175448 14 0 1.6 20.9 0.00 0.00 0.00 35 1010.5
20260503175323 14 0 1.6 20.9 0.00 0.00 0.00 36 1010.5
20260503175238 14 0 1.6 20.9 0.00 0.00 0.00 38 1010.5
20260503175138 14 0 1.6 20.9 0.00 0.00 0.00 35 1010.6
20260503175038 14 0 1.6 20.9 0.00 0.00 0.00 35 1010.6
20260503175021 14 360 0.0 20.9 0.00 0.00 0.00 34 1010.6
20260503174937 14 0 1.6 20.9 0.00 0.00 0.00 34 1010.7
20260503174823 14 0 1.6 20.9 0.00 0.00 0.00 33 1010.6
20260503174736 14 0 1.6 20.9 0.00 0.00 0.00 34 1010.5
20260503174636 14 0 1.6 20.9 0.00 0.00 0.00 34 1010.5
20260503174550 14 360 0.0 30.6 0.00 0.00 0.00 33 1010.4
20260503174535 14 0 1.6 30.6 0.00 0.00 0.00 33 1010.5
20260503174435 14 0 1.6 30.6 0.00 0.00 0.00 33 1010.5
20260503174322 14 0 3.2 30.6 0.00 0.00 0.00 32 1010.7
20260503174243 14 0 3.2 30.6 0.00 0.00 0.00 32 1010.6
20260503174239 14 0 3.2 30.6 0.00 0.00 0.00 32 1010.7
20260503174056 14 0 3.2 30.6 0.00 0.00 0.00 32 1010.7
20260503174052 14 0 3.2 30.6 0.00 0.00 0.00 32 1010.6
20260503174047 14 0 3.2 30.6 0.00 0.00 0.00 31 1010.6
20260503174020 14 360 0.0 30.6 0.00 0.00 0.00 31 1010.6
20260503173819 14 0 3.2 30.6 0.00 0.00 0.00 33 1010.6
20260503173741 14 0 3.2 30.6 0.00 0.00 0.00 34 1010.5
20260503173737 14 0 3.2 30.6 0.00 0.00 0.00 32 1010.7
20260503173540 14 0 3.2 25.7 0.00 0.00 0.00 35 1010.5
20260503173536 14 360 0.0 25.7 0.00 0.00 0.00 34 1010.4
20260503173321 14 0 3.2 25.7 0.00 0.00 0.00 34 1010.4
20260503173253 13 0 3.2 25.7 0.00 0.00 0.00 36 1010.5
20260503173247 14 0 3.2 25.7 0.00 0.00 0.00 34 1010.3
20260503173134 14 0 3.2 25.7 0.00 0.00 0.00 36 1010.4
20260503173020 13 360 1.6 25.7 0.00 0.00 0.00 36 1010.3
20260503172935 13 0 3.2 25.7 0.00 0.00 0.00 33 1010.4
20260503172926 13 0 4.8 25.7 0.00 0.00 0.00 34 1010.6
20260503172722 13 0 4.8 35.4 0.00 0.00 0.00 35 1010.6
20260503172635 13 0 4.8 35.4 0.00 0.00 0.00 34 1010.4
20260503172631 13 0 4.8 35.4 0.00 0.00 0.00 36 1010.5
20260503172520 13 360 1.6 35.4 0.00 0.00 0.00 34 1010.5
20260503172421 13 0 4.8 35.4 0.00 0.00 0.00 34 1010.6
20260503172322 13 0 4.8 35.4 0.00 0.00 0.00 35 1010.5
20260503172220 13 0 3.2 35.4 0.00 0.00 0.00 34 1010.6
20260503172119 13 0 3.2 35.4 0.00 0.00 0.00 34 1010.5
20260503172021 13 360 3.2 35.4 0.00 0.00 0.00 35 1010.3
20260503172019 13 0 3.2 35.4 0.00 0.00 0.00 35 1010.5
20260503171918 13 0 3.2 35.4 0.00 0.00 0.00 33 1010.4
20260503171818 13 0 3.2 35.4 0.00 0.00 0.00 35 1010.3
20260503171718 13 0 1.6 24.1 0.00 0.00 0.00 36 1010.5
20260503171617 13 0 1.6 24.1 0.00 0.00 0.00 35 1010.5
20260503171520 13 360 0.0 24.1 0.00 0.00 0.00 32 1010.4
20260503171516 13 0 1.6 24.1 0.00 0.00 0.00 32 1010.5
20260503171443 13 0 1.6 24.1 0.00 0.00 0.00 33 1010.5
20260503171324 13 0 1.6 19.3 0.00 0.00 0.00 35 1010.6
20260503171115 13 0 1.6 19.3 0.00 0.00 0.00 34 1010.7
20260503171035 13 360 1.6 19.3 0.00 0.00 0.00 33 1010.6
20260503171015 13 0 1.6 19.3 0.00 0.00 0.00 33 1010.7
20260503170913 13 0 0.0 14.5 0.00 0.00 0.00 36 1010.8
20260503170813 13 0 0.0 14.5 0.00 0.00 0.00 37 1010.8
20260503170713 13 0 0.0 16.1 0.00 0.00 0.00 35 1010.8
20260503170612 13 0 0.0 16.1 0.00 0.00 0.00 35 1010.8
20260503170521 13 360 0.0 16.1 0.00 0.00 0.00 37 1010.7
20260503170512 13 0 1.6 16.1 0.00 0.00 0.00 37 1010.8
20260503170409 13 0 1.6 16.1 0.00 0.00 0.00 39 1010.8
20260503170318 13 0 1.6 16.1 0.00 0.00 0.00 35 1010.8
20260503170310 13 0 1.6 16.1 0.00 0.00 0.00 35 1010.7
20260503170236 13 0 1.6 16.1 0.00 0.00 0.00 37 1010.7
20260503170232 13 0 1.6 16.1 0.00 0.00 0.00 38 1010.8
20260503170227 13 0 1.6 16.1 0.00 0.00 0.00 36 1010.7
20260503160206 11 0 0.0 4.8 0.00 0.00 0.00 42 1011.1
20260503160201 11 0 0.0 9.7 0.00 0.00 0.00 42 1011.1
20260503151012 11 0 1.6 17.7 0.00 0.00 0.00 44 1010.8
20260503150809 11 0 1.6 17.7 0.00 0.00 0.00 43 1006.5
20260503150803 11 0 1.6 17.7 0.00 0.00 0.00 43 1006.5
20260503150715 11 0 1.6 17.7 0.00 0.00 0.00 42 1006.4
20260503150711 11 0 1.6 17.7 0.00 0.00 0.00 41 1006.4
20260503150521 11 360 0.0 17.7 0.00 0.00 0.00 43 1006.1
20260503150501 11 0 1.6 17.7 0.00 0.00 0.00 43 1006.2
20260503150401 11 0 1.6 17.7 0.00 0.00 0.00 42 1006.2
20260503150308 11 0 1.6 16.1 0.00 0.00 0.00 42 1006.2
20260503150300 11 0 1.6 16.1 0.00 0.00 0.00 42 1006.2
20260503150213 11 0 1.6 16.1 0.00 0.00 0.00 41 1006.4
20260503150209 11 0 1.6 16.1 0.00 0.00 0.00 41 1006.2
20260503140229 10 0 1.6 24.1 0.00 0.00 0.00 48 1006.9
20260503140141 10 0 0.0 14.5 0.00 0.00 0.00 50 1006.9
20260503140137 10 0 1.6 24.1 0.00 0.00 0.00 48 1006.9
20260503131405 9 0 0.0 4.8 0.00 0.00 0.00 54 1007.8
20260503131349 9 0 0.0 3.2 0.00 0.00 0.00 54 1007.8
20260503131218 9 0 0.0 3.2 0.00 0.00 0.00 55 1007.9
20260503131213 9 0 0.0 3.2 0.00 0.00 0.00 53 1007.8
20260503131021 9 360 0.0 3.2 0.00 0.00 0.00 55 1008.0
20260503131016 9 0 0.0 3.2 0.00 0.00 0.00 55 1008.0
20260503131011 9 0 0.0 3.2 0.00 0.00 0.00 55 1008.0
20260503130801 9 0 0.0 3.2 0.00 0.00 0.00 55 1008.1
20260503130742 9 0 0.0 3.2 0.00 0.00 0.00 55 1008.1
20260503130723 9 0 0.0 3.2 0.00 0.00 0.00 54 1008.2
20260503130610 9 0 0.0 3.2 0.00 0.00 0.00 53 1008.2
20260503130521 9 360 0.0 3.2 0.00 0.00 0.00 54 1008.3
20260503130400 9 0 0.0 3.2 0.00 0.00 0.00 55 1008.2
20260503130241 9 0 0.0 3.2 0.00 0.00 0.00 54 1008.3
20260503130200 9 0 0.0 3.2 0.00 0.00 0.00 53 1008.3
20260503130135 9 0 0.0 3.2 0.00 0.00 0.00 53 1008.3
20260503130128 9 0 0.0 3.2 0.00 0.00 0.00 53 1008.4
20260503120124 7 0 0.0 0.0 0.00 0.00 0.00 62 1011.3
20260503110816 6 0 0.0 0.0 0.00 0.00 0.00 64 1010.9
20260503110804 6 0 0.0 0.0 0.00 0.00 0.00 64 1010.9
20260503110557 6 0 0.0 0.0 0.00 0.00 0.00 64 1010.9
20260503110536 6 360 0.0 0.0 0.00 0.00 0.00 64 1011.0
20260503110458 6 0 0.0 0.0 0.00 0.00 0.00 64 1010.9
20260503110442 6 0 0.0 0.0 0.00 0.00 0.00 64 1010.9
20260503110358 6 0 0.0 0.0 0.00 0.00 0.00 64 1010.8
20260503110332 6 0 0.0 0.0 0.00 0.00 0.00 64 1010.9
20260503110156 6 0 0.0 0.0 0.00 0.00 0.00 64 1010.9
20260503110114 6 0 0.0 0.0 0.00 0.00 0.00 64 1010.8
20260503110108 6 0 0.0 0.0 0.00 0.00 0.00 64 1010.8
20260503110106 6 360 0.0 0.0 0.00 0.00 0.00 64 1010.9
20260503100223 6 0 0.0 8.0 0.00 0.00 0.00 65 1010.1
20260503100212 6 0 0.0 8.0 0.00 0.00 0.00 66 1010.1
20260503100123 6 0 0.0 8.0 0.00 0.00 0.00 66 1010.1
20260503090503 3 0 0.0 0.0 0.00 0.00 0.00 79 1009.4
20260503090459 3 0 0.0 0.0 0.00 0.00 0.00 79 1009.4
20260503090309 3 0 0.0 0.0 0.00 0.00 0.00 79 1009.3
20260503090256 3 0 0.0 0.0 0.00 0.00 0.00 79 1009.3
20260503081521 3 232 0.0 3.2 0.00 0.00 0.00 80 1009.1
20260503081423 3 232 0.0 3.2 0.00 0.00 0.00 80 1008.9
20260503081322 3 232 0.0 3.2 0.00 0.00 0.00 80 1008.9
20260503081222 3 232 0.0 3.2 0.00 0.00 0.00 80 1008.9
20260503081153 3 232 0.0 3.2 0.00 0.00 0.00 80 1008.8
20260503081127 3 232 0.0 0.0 0.00 0.00 0.00 79 1008.8
20260503081122 3 232 0.0 3.2 0.00 0.00 0.00 80 1008.8
20260503081116 3 232 0.0 0.0 0.00 0.00 0.00 79 1008.8
20260503081107 3 232 0.0 0.0 0.00 0.00 0.00 79 1008.8
20260503081101 3 232 0.0 0.0 0.00 0.00 0.00 80 1008.8
20260503081020 3 232 0.0 0.0 0.00 0.00 0.00 80 1009.0
20260503080833 3 232 0.0 0.0 0.00 0.00 0.00 79 1008.8
20260503080521 3 232 0.0 0.0 0.00 0.00 0.00 79 1009.0
20260503080518 3 232 0.0 0.0 0.00 0.00 0.00 79 1008.8
20260503080432 3 232 0.0 0.0 0.00 0.00 0.00 79 1008.7
20260503080426 3 232 0.0 0.0 0.00 0.00 0.00 79 1008.8
20260503080217 3 232 0.0 0.0 0.00 0.00 0.00 79 1008.7
20260503080138 3 232 0.0 0.0 0.00 0.00 0.00 79 1008.7
20260503080106 3 232 0.0 0.0 0.00 0.00 0.00 79 1008.9
20260503072909 4 232 0.0 0.0 0.00 0.00 0.00 80 1008.5
20260503072643 4 232 0.0 0.0 0.00 0.00 0.00 80 1008.5
20260503072559 4 232 0.0 0.0 0.00 0.00 0.00 80 1008.5
20260503072521 4 232 0.0 0.0 0.00 0.00 0.00 80 1008.6